Reading, PA

6:12 AM EDT on August 18, 2017 (GMT -0400)
Reading Regional-Spaatz

Weather History for KRDG - October, 2013

Change the Weather History Date:

Thursday, October 31, 2013

  Actual Average Record
Temperature  
Mean Temperature 58 °F 49 °F  
Max Temperature 67 °F 60 °F 81 °F (1946)
Min Temperature 49 °F 39 °F 23 °F (1988)
Degree Days  
Heating Degree Days 7 16  
Month to date heating degree days 275 361  
Since 1 July heating degree days 365 438  
Cooling Degree Days 0 0  
Month to date cooling degree days 42 9  
Year to date cooling degree days 1124 896  
Growing Degree Days 6 (Base 50)    
Moisture  
Dew Point 52 °F    
Average Humidity 82    
Maximum Humidity 96    
Minimum Humidity 68    
Precipitation  
Precipitation 0.04 in 0.07 in 1.31 in (1939)
Month to date precipitation 4.77 3.22  
Year to date precipitation 35.22 36.52  
Sea Level Pressure  
Sea Level Pressure 30.08 in    
Wind  
Wind Speed 5 mph (South)    
Max Wind Speed 17 mph    
Max Gust Speed 25 mph    
Visibility 4 miles    
Events Fog , Rain    
T = Trace of Precipitation, MM = Missing Value Source: NWS Daily Summary

Daily Weather History Graph

Daily Weather History Graph

Search for Another Location

Airport or City:

Trip Planner

Search our weather history database for the weather conditions in past years. The results will help you decide how hot, cold, wet, or windy it might be!

Date:

Astronomy

Oct. 31, 2013 Rise Set
Actual Time 7:32 AM EDT 6:01 PM EDT
Civil Twilight 7:04 AM EDT 6:29 PM EDT
Nautical Twilight 6:32 AM EDT 7:01 PM EDT
Astronomical Twilight 6:00 AM EDT 7:33 PM EDT
Moon 4:19 AM EDT (10/31) 4:18 PM EDT (10/31)
Length of Visible Light 11h 25m
Length of Day
10h 28m
Waning Crescent, 10% of the Moon is Illuminated
Oct 31
Waning Crescent
Nov 3
New
Nov 10
First Quarter
Nov 17
Full
Nov 25
Last Quarter

Hourly Weather History & Observations

Time (EDT) Temp. Windchill Dew Point Humidity Pressure Visibility Wind Dir Wind Speed Gust Speed Precip Events Conditions
12:12 AM 48.2 °F - 46.4 °F 93% 30.21 in 2.5 mi Calm Calm - N/A   Clear
12:19 AM 46.4 °F 44.3 °F 46.4 °F 100% 30.21 in 0.8 mi SSW 4.6 mph - N/A   Mist
12:27 AM 48.2 °F - 46.4 °F 93% 30.21 in 0.2 mi SW 4.6 mph - N/A Fog Fog
12:36 AM 48.2 °F - 48.2 °F 100% 30.21 in 0.8 mi WSW 3.5 mph - N/A   Mostly Cloudy
12:43 AM 50.0 °F - 48.2 °F 94% 30.21 in 2.0 mi Calm Calm - N/A   Overcast
12:52 AM 50.0 °F - 50.0 °F 100% 30.20 in 3.0 mi Calm Calm - N/A   Overcast
12:54 AM 50.0 °F - 48.9 °F 96% 30.22 in 3.0 mi Calm Calm - N/A   Overcast
1:15 AM 48.2 °F - 48.2 °F 100% 30.20 in 2.5 mi Calm Calm - N/A   Overcast
1:33 AM 48.2 °F - 48.2 °F 100% 30.19 in 1.8 mi Calm Calm - N/A   Overcast
1:41 AM 48.2 °F - 48.2 °F 100% 30.19 in 2.5 mi Calm Calm - N/A   Overcast
1:54 AM 50.0 °F - 48.0 °F 93% 30.20 in 3.0 mi Calm Calm - N/A   Overcast
2:54 AM 51.1 °F - 48.9 °F 92% 30.21 in 3.0 mi Calm Calm - N/A   Overcast
3:54 AM 51.1 °F - 48.9 °F 92% 30.18 in 3.0 mi Calm Calm - N/A   Overcast
4:54 AM 51.1 °F - 48.9 °F 92% 30.16 in 3.0 mi Calm Calm - N/A   Overcast
5:20 AM 51.8 °F - 48.2 °F 88% 30.13 in 3.0 mi Calm Calm - N/A   Overcast
5:24 AM 50.0 °F - 48.2 °F 94% 30.13 in 2.5 mi Calm Calm - N/A   Overcast
5:26 AM 51.8 °F - 48.2 °F 88% 30.13 in 2.5 mi Calm Calm - N/A   Overcast
5:39 AM 51.8 °F - 48.2 °F 88% 30.12 in 3.0 mi NNW 3.5 mph - N/A   Overcast
5:54 AM 51.1 °F - 48.9 °F 92% 30.15 in 2.0 mi Calm Calm - N/A   Overcast
6:01 AM 51.8 °F - 50.0 °F 94% 30.14 in 4.0 mi Calm Calm - N/A   Overcast
6:24 AM 51.8 °F - 48.2 °F 88% 30.13 in 2.5 mi Calm Calm - N/A   Overcast
6:43 AM 51.8 °F - 50.0 °F 94% 30.12 in 3.0 mi NNW 4.6 mph - N/A   Overcast
6:54 AM 52.0 °F - 50.0 °F 93% 30.14 in 3.0 mi Calm Calm - N/A   Overcast
7:52 AM 51.8 °F - 50.0 °F 94% 30.12 in 2.5 mi Calm Calm - N/A   Overcast
7:54 AM 52.0 °F - 50.0 °F 93% 30.14 in 2.5 mi Calm Calm - N/A   Overcast
8:54 AM 54.0 °F - 51.1 °F 90% 30.13 in 3.0 mi Calm Calm - N/A   Overcast
9:02 AM 55.4 °F - 51.8 °F 88% 30.11 in 2.5 mi Calm Calm - N/A   Overcast
9:54 AM 57.0 °F - 53.1 °F 87% 30.11 in 2.0 mi SSE 4.6 mph - N/A   Overcast
10:01 AM 57.2 °F - 53.6 °F 88% 30.09 in 3.0 mi SSE 4.6 mph - N/A   Overcast
10:15 AM 57.2 °F - 53.6 °F 88% 30.08 in 3.0 mi SSE 4.6 mph - N/A   Mostly Cloudy
10:54 AM 57.9 °F - 54.0 °F 87% 30.10 in 4.0 mi Calm Calm - 0.00 in Rain Light Rain
11:54 AM 60.1 °F - 55.9 °F 86% 30.06 in 3.0 mi Calm Calm - 0.00 in   Mostly Cloudy
12:54 PM 60.1 °F - 55.0 °F 83% 30.02 in 5.0 mi SE 3.5 mph - N/A   Haze
1:54 PM 62.1 °F - 55.9 °F 80% 29.99 in 5.0 mi SE 4.6 mph - N/A   Haze
2:54 PM 63.0 °F - 57.0 °F 81% 29.97 in 5.0 mi Calm Calm - 0.00 in   Haze
3:01 PM 64.4 °F - 57.2 °F 77% 29.95 in 6.0 mi Calm Calm - N/A   Haze
3:54 PM 64.9 °F - 57.9 °F 78% 29.94 in 10.0 mi South 4.6 mph - 0.00 in Rain Light Rain
4:54 PM 66.0 °F - 57.0 °F 73% 29.91 in 10.0 mi South 9.2 mph - 0.00 in Rain Light Rain
5:54 PM 64.9 °F - 57.0 °F 75% 29.89 in 10.0 mi South 12.7 mph 19.6 mph 0.00 in Rain Light Rain
6:54 PM 66.0 °F - 57.0 °F 73% 29.88 in 10.0 mi South 11.5 mph - 0.00 in   Mostly Cloudy
7:54 PM 66.9 °F - 55.9 °F 68% 29.89 in 10.0 mi South 15.0 mph 21.9 mph N/A   Mostly Cloudy
8:54 PM 64.0 °F - 57.9 °F 80% 29.86 in 9.0 mi South 10.4 mph - 0.03 in Rain Light Rain
9:54 PM 64.0 °F - 57.9 °F 80% 29.84 in 10.0 mi South 15.0 mph 21.9 mph 0.00 in Rain Light Rain
10:54 PM 63.0 °F - 59.0 °F 87% 29.81 in 10.0 mi South 9.2 mph - 0.01 in Rain Light Rain
11:54 PM 64.9 °F - 59.0 °F 81% 29.77 in 10.0 mi South 10.4 mph 18.4 mph 0.00 in Rain Light Rain